Regional Weather Roundup
Issued by NWS Upton, NY

Current Version | Previous Version | Text Only | Print | Product List | Glossary Off
Versions: 1 2 3 4 5 6 7 8 9 10 11 12 13 14 15 16 17 18 19 20 21 22 23 24 25 26 27 28 29 30 31 32 33 34 35 36 37 38 39 40 41 42 43 44 45 46 47 48 49 50
000 ASUS41 KOKX 210305 RWROKX REGIONAL WEATHER ROUNDUP NATIONAL WEATHER SERVICE NEW YORK NY 1000 PM EST SAT DEC 20 2014 NOTE: "FAIR" INDICATES FEW OR NO CLOUDS BELOW 12,000 FEET WITH NO SIGNIFICANT WEATHER AND/OR OBSTRUCTIONS TO VISIBILITY. NYZ071-072-176-178-NJZ106-104-210400- NEW YORK CITY METRO AREA CITY SKY/WX TMP DP RH WIND PRES REMARKS CENTRAL PARK CLOUDY 32 20 61 VRB3 30.31S LAGUARDIA APRT CLOUDY 33 23 66 N6 30.30R WCI 28 KENNEDY INTL CLOUDY 34 21 59 N6 30.31R WCI 29 NEWARK/LIBERTY CLOUDY 32 22 66 NE7 30.30S WCI 26 BRNX BOT. GARD N/A N/A N/A N/A N6 30.31R TETERBORO CLOUDY 32 21 64 NE3 30.30R $$ NYZ177-179-078>081-210400- LONG ISLAND NEW YORK CITY SKY/WX TMP DP RH WIND PRES REMARKS FARMINGDALE CLOUDY 33 22 63 CALM 30.29S ISLIP CLOUDY 33 23 66 W3 30.28R SHIRLEY CLOUDY 32 26 78 CALM 30.29S WESTHAMPTON CLOUDY 33 27 78 W3 30.30R MONTAUK POINT N/A 37 30 75 NE6 30.28R WCI 32 $$ NYZ052-065-067-210400- HUDSON VALLEY CITY SKY/WX TMP DP RH WIND PRES REMARKS WHITE PLAINS CLOUDY 30 21 69 NW3 30.27R NEWBURGH NOT AVBL MONTGOMERY CLOUDY 28 23 81 NE3 30.28S POUGHKEEPSIE CLOUDY 30 20 66 CALM 30.31R ALBANY CLOUDY 28 19 69 N3 30.32R $$ NJZ001-105-106-008-010-013-015-019>022-104-210400- NEW JERSEY CITY SKY/WX TMP DP RH WIND PRES REMARKS NEWARK/LIBERTY CLOUDY 32 22 66 NE7 30.30S WCI 26 TETERBORO CLOUDY 32 21 64 NE3 30.30R CALDWELL CLOUDY 31 21 66 NE3 30.29F MORRISTOWN CLOUDY 34 21 60 CALM 30.29S SOMERVILLE CLOUDY 31 22 69 CALM 30.28S SUSSEX CLOUDY 29 21 72 E6 30.27F WCI 23 ANDOVER N/A 29 20 69 NE3 30.26F TRENTON CLOUDY 31 21 66 CALM 30.28F MILLVILLE CLOUDY 28 24 85 CALM 30.30R ATLANTIC CITY CLOUDY 28 21 75 CALM 30.30S WRIGHTSTOWN CLOUDY 28 23 82 N2 30.27S TOMS RIVER CLEAR 25 21 86 CALM 30.29F BELMAR CLOUDY 30 18 59 NW5 30.28F WCI 25 $$ PAZ047>061-062-071-210400- EASTERN PENNSYLVANIA CITY SKY/WX TMP DP RH WIND PRES REMARKS PHILADELPHIA CLOUDY 34 22 61 SE5 30.31S WCI 30 ALLENTOWN CLOUDY 32 20 61 E5 30.28S WCI 27 SCRANTON CLOUDY 30 19 63 N5 30.23F WCI 25 $$ CTZ002-004>006-009-010-012-RIZ004-006-007-MAZ004-011-015-210400- SOUTHERN NEW ENGLAND IN CT CITY SKY/WX TMP DP RH WIND PRES REMARKS BRADLEY INTL CLOUDY 33 25 72 N6 30.29R WCI 28 HARTFORD CLOUDY 32 22 66 VRB6 30.29S WCI 26 DANBURY CLOUDY 29 21 72 CALM 30.29R WTRBRY/OXFORD CLOUDY 30 19 64 CALM 30.27R BRIDGEPORT CLOUDY 33 27 78 NW5 30.29S WCI 29 MERIDEN CLOUDY 31 22 69 NW5 30.29R WCI 26 NEW HAVEN CLOUDY 35 23 61 N3 30.29R CHESTER CLOUDY 32 27 80 NW3 30.27R GROTON CLOUDY 33 28 81 N5 30.27R WCI 29 WILLIMANTIC CLOUDY 33 27 78 NE8 30.28R WCI 26 IN RI CITY SKY/WX TMP DP RH WIND PRES REMARKS PROVIDENCE LGT SNOW 31 29 92 N9 30.28F FOG WCI 23 BLOCK ISLAND CLOUDY 36 30 80 N10 30.25S WCI 28 WESTERLY CLOUDY 34 28 79 N7 30.27S WCI 28 IN MA CITY SKY/WX TMP DP RH WIND PRES REMARKS BOSTON CLOUDY 35 28 75 NE10 30.29F WCI 27 WORCESTER CLOUDY 28 24 85 NE7 30.25S WCI 21 WESTFIELD CLOUDY 32 26 78 N6 30.29R WCI 26 PROVINCETOWN CLOUDY 39 34 81 NE18 30.27S WCI 30 NANTUCKET CLOUDY 40 35 83 NE8 30.24R WCI 34 $$ ANZ330-335-338-340-345-350-353-355-210400- COASTAL MARINE OBSERVATIONS STATION/POSITION TIME SKY/WX TEMP WIND PRES VSBY WAVE AIR SEA DIR/SP/G HT/PER (UTC) (F) (DEG/KT/KT) (MB) (MI) (FT/S) NY HARB ENTRANCE 0300 35 46 320/ 4/ 6 1026.2 1 4S FIRE IS 0300 45 N/A 1/11 20S FIRE ISLAND 0200 36 49 1026.0 1/11 23SW MTP 0300 N/A 2/ 5 HUDSON CANYON 0300 39 54 330/ 14/ 17 1024.4 2/ 3 EXECUTION ROCKS 0300 33 41 320/ 6/ 8 N/A WESTERN LI SOUND 0300 33 350/ 6/ 8 N/A 0 CENTRAL LI SOUND 0200 33 44 340/ 4/ 6 N/A 0 EASTERN LI SOUND NOT AVBL ROBBINS REEF 0300 33 140/ 3/ 8 1024.7 $$ >>>>>>>>>>>>>>>>>>>>>>>>>>>> KEY <<<<<<<<<<<<<<<<<<<<<<<<<<< > < > SKY/WX - SKY CONDITION/PRESENT WEATHER < > TMP - TEMPERATURE IN FAHRENHEIT < > DP - DEWPOINT IN FAHRENHEIT < > RH - RELATIVE HUMIDITY IN PERCENT < > WIND - DIRECTION AND SPEED IN MPH < > PRES - MEAN SEA LEVEL PRESSURE IN INCHES OF HG < > WCI - WIND CHILL INDEX < > VSB - VISIBILITY IN MILES < > HX - HEAT INDEX < > TC - TEMPERATURE IN CELSIUS < > VRB - VARIABLE WIND DIRECTION < > < >>>>>>>>>>>>>>>>>>>>>>>>>>>> KEY <<<<<<<<<<<<<<<<<<<<<<<<<<<

USA.gov is the U.S. government's official web portal to all federal, state and local government web resources and services.